Satellite-Ground Cal/Val Region Overpasses Predictions

Prediction of Satellite NPP Overpassing Cal/Val Region: PacNW

Region Location: (Latitude: 10.00, Longitude: 139.50) to (Latitude: 22.70, Longitude: 165.60).

Table of predicted overpasses for the next 14.0 days since TLE Epoch: 9/18/2015
Interval Starting Time Starting Location Ending Time Ending Location
1 09/18/2015 15:27:03 ( 22.68, 153.99) 09/18/2015 15:30:38 ( 10.06, 150.99)
2 09/19/2015 02:36:08 ( 10.04, 161.52) 09/19/2015 02:39:43 ( 22.66, 158.53)
3 09/19/2015 15:08:00 ( 22.70, 158.75) 09/19/2015 15:11:36 ( 10.02, 155.74)
4 09/20/2015 02:17:55 ( 13.02, 165.60) 09/20/2015 02:20:39 ( 22.64, 163.29)
5 09/20/2015 03:58:34 ( 10.03, 140.91) 09/20/2015 04:00:17 ( 16.08, 139.51)
6 09/20/2015 14:48:57 ( 22.66, 163.50) 09/20/2015 14:52:32 ( 10.03, 160.51)
7 09/21/2015 03:39:31 ( 10.01, 145.67) 09/21/2015 03:43:07 ( 22.69, 142.66)
8 09/21/2015 14:33:05 ( 11.46, 165.59) 09/21/2015 14:33:29 ( 10.05, 165.27)
9 09/21/2015 16:11:24 ( 22.66, 142.89) 09/21/2015 16:14:59 ( 10.04, 139.89)
10 09/22/2015 03:20:28 ( 10.06, 150.43) 09/22/2015 03:24:03 ( 22.68, 147.43)
11 09/22/2015 15:52:20 ( 22.68, 147.65) 09/22/2015 15:55:55 ( 10.06, 144.66)
12 09/23/2015 03:01:25 ( 10.04, 155.19) 09/23/2015 03:05:00 ( 22.66, 152.19)
13 09/23/2015 15:33:17 ( 22.70, 152.42) 09/23/2015 15:36:53 ( 10.02, 149.41)
14 09/24/2015 02:42:22 ( 10.02, 159.95) 09/24/2015 02:45:57 ( 22.64, 156.96)
15 09/24/2015 15:14:14 ( 22.66, 157.17) 09/24/2015 15:17:49 ( 10.03, 154.17)
16 09/25/2015 02:23:18 ( 10.00, 164.72) 09/25/2015 02:26:54 ( 22.69, 161.71)
17 09/25/2015 14:55:11 ( 22.67, 161.93) 09/25/2015 14:58:46 ( 10.05, 158.94)
18 09/26/2015 03:45:46 ( 10.06, 144.09) 09/26/2015 03:49:21 ( 22.68, 141.10)
19 09/26/2015 14:37:24 ( 18.17, 165.59) 09/26/2015 14:39:43 ( 10.01, 163.69)
20 09/26/2015 16:17:37 ( 22.68, 141.32) 09/26/2015 16:19:45 ( 15.17, 139.51)
21 09/27/2015 03:26:42 ( 10.04, 148.86) 09/27/2015 03:30:17 ( 22.66, 145.86)
22 09/27/2015 15:58:34 ( 22.69, 146.09) 09/27/2015 16:02:10 ( 10.01, 143.07)
23 09/28/2015 03:07:39 ( 10.03, 153.62) 09/28/2015 03:11:14 ( 22.65, 150.62)
24 09/28/2015 15:39:31 ( 22.65, 150.83) 09/28/2015 15:43:06 ( 10.03, 147.84)
25 09/29/2015 02:48:35 ( 10.01, 158.38) 09/29/2015 02:52:11 ( 22.69, 155.37)
26 09/29/2015 15:20:28 ( 22.66, 155.60) 09/29/2015 15:24:03 ( 10.04, 152.60)
27 09/30/2015 02:29:33 ( 10.06, 163.13) 09/30/2015 02:33:08 ( 22.68, 160.14)
28 09/30/2015 15:01:24 ( 22.68, 160.36) 09/30/2015 15:04:59 ( 10.05, 157.37)
29 10/01/2015 02:13:16 ( 19.85, 165.60) 10/01/2015 02:14:04 ( 22.66, 164.90)
30 10/01/2015 03:51:59 ( 10.05, 142.52) 10/01/2015 03:55:34 ( 22.68, 139.53)
31 10/01/2015 14:42:21 ( 22.69, 165.13) 10/01/2015 14:45:57 ( 10.01, 162.12)
32 10/01/2015 16:23:51 ( 22.68, 139.75) 10/01/2015 16:24:08 ( 21.68, 139.50)


NCC Satellite Cal/Val Overpasses Prediction Service
